TimeCDT,TemperatureF,Dew PointF,Humidity,Sea Level PressureIn,VisibilityMPH,Wind Direction,Wind SpeedMPH,Gust SpeedMPH,PrecipitationIn,Events,Conditions,WindDirDegrees,DateUTC
12:52 AM,62.1,57.0,84,29.94,9.0,Calm,Calm,-,N/A,,Clear,0,2013-07-20 05:52:00
1:52 AM,61.0,55.9,83,29.94,10.0,SW,4.6,-,N/A,,Clear,220,2013-07-20 06:52:00
2:52 AM,60.1,55.9,86,29.92,10.0,Calm,Calm,-,N/A,,Clear,0,2013-07-20 07:52:00
3:52 AM,59.0,55.0,87,29.91,9.0,SW,4.6,-,N/A,,Clear,220,2013-07-20 08:52:00
4:52 AM,59.0,55.0,87,29.91,9.0,West,4.6,-,N/A,,Clear,270,2013-07-20 09:52:00
5:52 AM,60.1,55.9,86,29.92,9.0,WSW,3.5,-,N/A,,Clear,240,2013-07-20 10:52:00
6:52 AM,61.0,57.0,87,29.93,10.0,West,5.8,-,N/A,,Clear,260,2013-07-20 11:52:00
7:52 AM,68.0,61.0,78,29.96,10.0,NW,4.6,-,N/A,,Clear,310,2013-07-20 12:52:00
8:52 AM,71.1,60.1,68,29.98,10.0,NW,8.1,-,N/A,,Clear,310,2013-07-20 13:52:00
9:52 AM,73.0,59.0,61,29.97,10.0,NW,10.4,-,N/A,,Clear,310,2013-07-20 14:52:00
10:52 AM,73.9,60.1,62,29.96,10.0,North,5.8,-,N/A,,Clear,360,2013-07-20 15:52:00
11:52 AM,75.9,59.0,56,29.96,10.0,North,5.8,-,N/A,,Clear,350,2013-07-20 16:52:00
12:52 PM,78.1,60.1,54,29.96,10.0,North,3.5,-,N/A,,Clear,360,2013-07-20 17:52:00
1:52 PM,79.0,60.1,52,29.95,10.0,Calm,Calm,-,N/A,,Clear,0,2013-07-20 18:52:00
2:52 PM,80.1,61.0,52,29.94,10.0,Calm,Calm,-,N/A,,Clear,0,2013-07-20 19:52:00
3:52 PM,80.1,60.1,50,29.94,10.0,SSE,3.5,-,N/A,,Partly Cloudy,160,2013-07-20 20:52:00
4:52 PM,81.0,61.0,50,29.92,10.0,South,4.6,-,N/A,,Clear,180,2013-07-20 21:52:00
5:52 PM,82.0,60.1,47,29.90,10.0,Calm,Calm,-,N/A,,Clear,0,2013-07-20 22:52:00
6:52 PM,80.1,61.0,52,29.88,10.0,Calm,Calm,-,N/A,,Clear,0,2013-07-20 23:52:00
7:52 PM,79.0,62.1,56,29.89,10.0,Calm,Calm,-,N/A,,Clear,0,2013-07-21 00:52:00
8:52 PM,75.0,66.0,73,29.88,10.0,Calm,Calm,-,N/A,,Clear,0,2013-07-21 01:52:00
9:52 PM,71.1,64.0,78,29.91,10.0,Calm,Calm,-,N/A,,Clear,0,2013-07-21 02:52:00
10:52 PM,71.1,63.0,75,29.92,10.0,Calm,Calm,-,N/A,,Scattered Clouds,0,2013-07-21 03:52:00
11:52 PM,69.1,62.1,78,29.92,10.0,Calm,Calm,-,N/A,,Clear,0,2013-07-21 04:52:00